EW6750 Weather Reports


Display with metric or nautical units.
time (UTC)temp
F
wind
direction
speed
MPH
gust
MPH
rain 1hr
in
rain 24hr
in
rain mn
in
humidity
%
barometer
mb
20260507171546 60 341 2.0 5.0 0.00 0.00 0.00 45 1014.1
20260507170542 60 293 2.0 3.0 0.00 0.00 0.00 44 1014.2
20260507165538 60 291 3.0 6.0 0.00 0.00 0.00 44 1014.2
20260507164555 61 335 3.0 8.0 0.00 0.00 0.00 45 1014.2
20260507163552 61 353 3.0 4.0 0.00 0.00 0.00 44 1014.2
20260507162526 61 343 3.0 6.0 0.00 0.00 0.00 45 1014.2
20260507161524 60 342 4.0 8.0 0.00 0.00 0.00 45 1014.1
20260507160519 60 323 3.0 5.0 0.00 0.00 0.00 45 1014.2
20260507155519 61 340 2.0 5.0 0.00 0.00 0.00 46 1014.2
20260507154612 61 290 3.0 8.0 0.00 0.00 0.00 45 1014.2
20260507153609 61 322 3.0 7.0 0.00 0.00 0.00 47 1014.4
20260507152625 61 329 4.0 7.0 0.00 0.00 0.00 46 1014.4
20260507150558 62 315 4.0 5.0 0.00 0.00 0.00 49 1014.4
20260507145616 61 349 3.0 5.0 0.00 0.00 0.00 49 1014.5
20260507144613 61 293 4.0 8.0 0.00 0.00 0.00 49 1014.6
20260507143549 61 2 3.0 5.0 0.00 0.00 0.00 49 1014.9
20260507142546 60 306 3.0 4.0 0.00 0.00 0.00 47 1015.0
20260507141541 61 313 3.0 6.0 0.00 0.00 0.00 49 1015.1
20260507140537 60 301 4.0 6.0 0.00 0.00 0.00 48 1015.2
20260507135534 61 336 3.0 5.0 0.00 0.00 0.00 50 1015.2
20260507134550 61 322 1.0 3.0 0.00 0.00 0.00 50 1015.4
20260507133550 60 292 3.0 4.0 0.00 0.00 0.00 50 1015.3
20260507132523 61 51 2.0 3.0 0.00 0.00 0.00 49 1015.5
20260507131520 60 282 3.0 7.0 0.00 0.00 0.00 48 1015.4
20260507130537 60 45 3.0 4.0 0.00 0.00 0.00 46 1015.4
20260507125635 60 306 5.0 8.0 0.00 0.00 0.00 45 1015.4
20260507124610 60 273 3.0 7.0 0.00 0.00 0.00 46 1015.4
20260507123608 60 0 1.0 3.0 0.00 0.00 0.00 51 1015.5
20260507122602 59 0 1.0 4.0 0.00 0.00 0.00 52 1015.6
20260507121620 58 338 3.0 4.0 0.00 0.00 0.00 52 1015.6
20260507120738 58 344 3.0 5.0 0.00 0.00 0.00 50 1015.7
20260507115552 57 10 2.0 4.0 0.00 0.00 0.00 51 1015.6
20260507114548 57 277 4.0 7.0 0.00 0.00 0.00 50 1015.8
20260507113546 57 63 1.0 3.0 0.00 0.00 0.00 52 1015.7
20260507112544 56 356 2.0 4.0 0.00 0.00 0.00 57 1015.7
20260507111539 56 359 2.0 5.0 0.00 0.00 0.00 62 1015.7
20260507110534 55 45 2.0 3.0 0.00 0.00 0.00 63 1015.9
20260507105531 55 353 1.0 2.0 0.00 0.00 0.00 65 1016.0
20260507104529 54 360 1.0 3.0 0.00 0.00 0.00 70 1016.0
20260507103525 53 5 1.0 2.0 0.00 0.00 0.00 70 1016.1
20260507102542 53 327 1.0 2.0 0.00 0.00 0.00 71 1016.1
20260507101517 53 0 0.0 2.0 0.00 0.00 0.00 71 1015.9
20260507100614 53 338 1.0 2.0 0.00 0.00 0.00 72 1016.0
20260507095610 52 0 0.0 2.0 0.00 0.00 0.00 72 1016.1
20260507094607 52 315 0.0 3.0 0.00 0.00 0.00 73 1016.1
20260507093625 51 358 1.0 2.0 0.00 0.00 0.00 73 1016.1
20260507092601 51 334 2.0 3.0 0.00 0.00 0.00 75 1016.1
20260507091557 51 0.0 1.0 0.00 0.00 0.00 76 1016.1
20260507090636 50 0 1.0 2.0 0.00 0.00 0.00 76 1016.1
20260507085551 49 345 1.0 2.0 0.00 0.00 0.00 76 1016.1
20260507084547 49 334 1.0 2.0 0.00 0.00 0.00 77 1016.1
20260507083542 49 15 0.0 2.0 0.00 0.00 0.00 77 1016.0
20260507082539 49 45 0.0 2.0 0.00 0.00 0.00 78 1016.0
20260507081535 49 344 1.0 4.0 0.00 0.00 0.00 79 1016.1
20260507080533 49 45 1.0 3.0 0.00 0.00 0.00 80 1016.3
20260507075530 48 55 0.0 2.0 0.00 0.00 0.00 80 1016.2
20260507074546 48 30 1.0 3.0 0.00 0.00 0.00 81 1016.1
20260507073521 47 0 0.0 2.0 0.00 0.00 0.00 81 1016.0
20260507072519 47 345 0.0 2.0 0.00 0.00 0.00 81 1016.1
20260507071614 47 60 1.0 2.0 0.00 0.00 0.00 81 1016.0
20260507070611 47 0.0 2.0 0.00 0.00 0.00 81 1015.9
20260507065609 46 18 0.0 2.0 0.00 0.00 0.00 81 1015.9
20260507064603 46 33 1.0 2.0 0.00 0.00 0.00 81 1015.9
20260507063600 46 330 1.0 4.0 0.00 0.00 0.00 82 1015.8
20260507062558 46 13 1.0 3.0 0.00 0.00 0.00 82 1015.9
20260507061615 46 341 2.0 3.0 0.00 0.00 0.00 83 1015.8
20260507060612 45 20 1.0 3.0 0.00 0.00 0.00 89 1015.7
20260507055546 45 15 0.0 2.0 0.00 0.00 0.00 90 1015.8
20260507054542 45 0.0 2.0 0.00 0.00 0.00 90 1015.6
20260507053559 44 23 0.0 2.0 0.00 0.00 0.00 89 1015.5
20260507052535 44 0.0 1.0 0.00 0.00 0.00 88 1015.6
20260507051552 43 45 0.0 2.0 0.00 0.00 0.00 87 1015.6
20260507050529 43 0.0 0.0 0.00 0.00 0.00 86 1015.6
20260507045545 42 0.0 0.0 0.00 0.00 0.00 85 1015.4
20260507044522 42 0.0 0.0 0.00 0.00 0.00 84 1015.4
20260507043540 43 0.0 0.0 0.00 0.00 0.00 84 1015.5
20260507042616 43 0.0 0.0 0.00 0.00 0.00 83 1015.5
20260507041614 43 0.0 0.0 0.00 0.00 0.00 83 1015.5
20260507040608 43 0.0 0.0 0.00 0.00 0.00 82 1015.5
20260507035604 44 0.0 0.0 0.00 0.00 0.00 82 1015.5
20260507034602 44 0.0 1.0 0.00 0.00 0.00 82 1015.6
20260507033558 44 0.0 0.0 0.00 0.00 0.00 82 1015.5
20260507032555 44 0.0 0.0 0.00 0.00 0.00 81 1015.6
20260507031550 44 0.0 0.0 0.00 0.00 0.00 81 1015.8
20260507030546 44 0.0 0.0 0.00 0.00 0.00 81 1015.7
20260507025545 45 45 0.0 2.0 0.00 0.00 0.00 81 1015.7
20260507024540 45 0 0.0 2.0 0.00 0.00 0.00 81 1015.7
20260507023558 45 0.0 0.0 0.00 0.00 0.00 80 1015.7
20260507022533 45 0.0 1.0 0.00 0.00 0.00 80 1015.7
20260507021551 45 34 0.0 2.0 0.00 0.00 0.00 80 1015.7
20260507020527 45 27 0.0 2.0 0.00 0.00 0.00 80 1015.6
20260507015522 45 45 0.0 2.0 0.00 0.00 0.00 79 1015.6
20260507014518 45 330 1.0 2.0 0.00 0.00 0.00 80 1015.6
20260507013535 46 348 1.0 4.0 0.00 0.00 0.00 74 1015.7
20260507012614 45 341 1.0 3.0 0.00 0.00 0.00 79 1015.6
20260507011629 45 0.0 1.0 0.00 0.00 0.00 81 1015.9
20260507010607 45 0.0 1.0 0.00 0.00 0.00 82 1015.9
20260507005601 45 0.0 1.0 0.00 0.00 0.00 82 1015.9
20260507004558 45 45 0.0 4.0 0.00 0.00 0.00 82 1015.9
20260507003554 45 45 0.0 2.0 0.00 0.00 0.00 82 1015.8
20260507002550 45 45 0.0 2.0 0.00 0.00 0.00 82 1016.0
20260507001548 45 47 1.0 3.0 0.00 0.00 0.00 82 1016.0
20260507000545 44 28 1.0 3.0 0.00 0.00 0.00 82 1015.9
20260506235540 44 40 1.0 4.0 0.00 0.00 0.00 82 1016.0
20260506234536 44 61 1.0 3.0 0.00 0.00 0.00 81 1016.1
20260506233533 45 329 1.0 4.0 0.00 0.00 0.00 81 1016.2
20260506232530 45 36 2.0 4.0 0.00 0.00 0.00 81 1016.2
20260506231526 45 32 1.0 2.0 0.00 0.00 0.00 81 1016.1
20260506230524 45 0 2.0 4.0 0.00 0.00 0.00 81 1016.1
20260506225520 45 13 2.0 4.0 0.00 0.00 0.00 80 1015.9
20260506224537 45 4 1.0 2.0 0.00 0.00 0.00 80 1016.1
20260506223612 45 3 1.0 3.0 0.00 0.00 0.00 80 1016.1
20260506222608 46 45 0.0 2.0 0.00 0.00 0.00 73 1015.9
20260506221606 46 18 1.0 3.0 0.00 0.00 0.00 72 1016.0
20260506220602 46 0.0 2.0 0.00 0.00 0.00 72 1015.9
20260506215600 46 0 0.0 2.0 0.00 0.00 0.00 72 1015.8
20260506214558 46 0.0 2.0 0.00 0.00 0.00 72 1015.8
20260506213552 46 45 0.0 3.0 0.00 0.00 0.00 71 1015.8
20260506212550 47 36 1.0 2.0 0.00 0.00 0.00 71 1015.8
20260506211544 47 0.0 2.0 0.00 0.00 0.00 71 1015.8
20260506210541 47 0.0 1.0 0.00 0.00 0.00 70 1015.8
20260506205538 47 0.0 1.0 0.00 0.00 0.00 70 1015.7
20260506204536 48 90 0.0 2.0 0.00 0.00 0.00 70 1015.7
20260506203530 48 0 0.0 2.0 0.00 0.00 0.00 70 1015.7
20260506202528 48 0 0.0 2.0 0.00 0.00 0.00 68 1015.6
20260506201523 49 45 0.0 2.0 0.00 0.00 0.00 67 1015.5
20260506200541 49 338 0.0 2.0 0.00 0.00 0.00 66 1015.3
20260506195517 49 342 0.0 2.0 0.00 0.00 0.00 65 1015.3
20260506194633 50 90 0.0 2.0 0.00 0.00 0.00 64 1015.2
20260506193609 50 225 0.0 2.0 0.00 0.00 0.00 63 1015.2
20260506192606 51 0 1.0 3.0 0.00 0.00 0.00 62 1015.0
20260506191623 52 30 1.0 3.0 0.00 0.00 0.00 61 1015.0
20260506190600 53 0 1.0 2.0 0.00 0.00 0.00 61 1014.9
20260506185615 53 49 1.0 4.0 0.00 0.00 0.00 60 1015.0
20260506184554 53 110 2.0 4.0 0.00 0.00 0.00 60 1014.9
20260506183549 54 36 2.0 4.0 0.00 0.00 0.00 57 1014.8
20260506182546 54 15 1.0 4.0 0.00 0.00 0.00 54 1014.8
20260506181603 55 12 1.0 2.0 0.00 0.00 0.00 51 1014.6
20260506180539 56 25 2.0 4.0 0.00 0.00 0.00 50 1014.6
20260506175534 56 33 2.0 4.0 0.00 0.00 0.00 50 1014.7
20260506174530 55 359 1.0 3.0 0.00 0.00 0.00 49 1014.7
20260506173527 54 341 2.0 3.0 0.00 0.00 0.00 50 1014.7
20260506172525 55 25 1.0 3.0 0.00 0.00 0.00 48 1014.6